IRIDIUM 16

Satellite information

Favourite Embed

Satellite Type and Status

PAYLOADIN ORBIT

Key statistics

Satellite IRIDIUM 16 at a glance.

Uptime

10245

Days in orbit

Revolutions

≈ 14.4

Per day

Orbit

LEO

Low Earth Orbit

Inclination

86.4

Latest

Satellite identification and parameters

Extended collection of information and parameters for IRIDIUM 16.

Object identification

Identified? True

Debris? False

Object name: IRIDIUM 16

International designator: 1997-030F

Object number (NORAD): 24841

Object ID (CCSDS): 24841

Country: UNITED STATES OF AMERICA (US)

Current information (Y/N): Y

RCS size: LARGE

Orbital parameters

Period: 100.089 minutes

Inclination: 86.4045 deg

SMA: 7140.854 km

Apoapsis: 765.129 km

Periapsis: 760.309 km

RAAN: 197.5614 deg

Eccentricy: 0.0003375

Argument of periapsis: 48.2986 deg

Mean anomaly: 311.85 deg

Mean motion: 14.38724068 rev/day

Mean motion (dot): 0.00000284 rev/day2

B* drag term: 0.000086057 1/REarth

Two-line elements (TLE)

Creation date: July 5, 2025, 5:45 p.m.

Reference frame: TEME

Reference center: EARTH

Epoch: July 5, 2025, 1:18 p.m. UTC

TLE line 0: 0 IRIDIUM 16

TLE line 1: 1 24841U 97030F 25186.55471077 .00000284 00000-0 86057-4 0 9990

TLE line 2: 2 24841 86.4045 197.5614 0003375 48.2986 311.8500 14.38724068469646

Live tracking on map

Real-time ground track for satellite IRIDIUM 16.

In-orbit conjunctions

A list of the most updated potential collisions computed for object IRIDIUM 16.

Target Orbit TCA Probability of collision Miss distance Type
CZ-6A DEB SSO 2025-04-27 15:33:54 0.0001351963 262.0 (m) DEBRIS
FENGYUN 1C DEB SSO 2025-04-11 07:11:30 0.0008240197 542.0 (m) DEBRIS
NOAA 16 DEB SSO 2025-01-31 16:13:03 0.000695685 184.0 (m) DEBRIS
OV1-20/OV1-21 AKM LEO 2024-10-26 17:15:59 0.0002124119 81.0 (m) ROCKET BODY

Associated space launch

Iridium provides global mobile telecommunications services using a constellation of 66 low earth orbit satellites in a 86.4° inclined orbit. Although 77 satellites were originally envisioned for the system and spawned the name based on the 77th element in the periodic table, the system has been scaled back. Motorola's Satellite Communications Group designed and manufactured the Iridium satellites with Lockheed Martin providing the LM-700A spacecraft buses.

IRIDIUM 16 was lifted into orbit during the mission ‘Proton-K/17S40 | Iridium 09 to 14 & Iridium 16’, on board a Proton-K/17S40 space rocket.

The launch took place on June 18, 1997, 2:02 p.m. from 81/23 (81L).

For more information about the launch, click the button.

Launch to space Proton-K/17S40 | Iridium 09 to 14 & Iridium 16
Proton-K/17S40 | Iridium 09 to 14 & Iridium 16

Agency: N/A

Status: Launch Successful

Launch date: June 18, 1997, 2:02 p.m. UTC

Rocket: Proton-K/17S40

Launch pad: 81/23 (81L)

Location: Baikonur Cosmodrome, Republic of Kazakhstan

...

Latest news about this satellite

There are no fresh news available about this satellite. Check back as we update our databases every day.


Newsletter sign-up

Weekly statistics, charts and insights to help you stay on top of the space industry.